Total_Precipitation_Accumulation
0.00 0.00 0.00 0.00 0.00 0.00 0.00 0.00 0.00 0.00 0.00 0.00 0.00 0.00 0.00 0.00 0.00 0.00 0.00 0.01 0.00 0.01 0.01 0.01 0.00 0.03 0.05 0.08 0.14 0.20 0.15 0.19 0.27 0.24 0.15 0.16 0.06 0.02 0.03 0.09 0.08 0.02 0.10
0.00 0.00 0.00 0.00 0.00 0.00 0.00 0.00 0.00 0.00 0.00 0.00 0.00 0.00 0.00 0.00 0.00 0.00 0.01 0.04 0.02 0.01 0.02 0.01 0.01 0.01 0.03 0.04 0.07 0.08 0.05 0.04 0.04 0.14 0.13 0.15 0.06 0.03 0.02 0.09 0.03 0.03 0.06
0.00 0.00 0.00 0.00 0.00 0.00 0.00 0.00 0.00 0.00 0.00 0.00 0.00 0.00 0.00 0.00 0.00 0.00 0.00 0.01 0.05 0.02 0.02 0.01 0.01 0.01 0.02 0.04 0.09 0.10 0.01 0.01 0.02 0.07 0.16 0.15 0.08 0.14 0.04 0.04 0.02 0.04 0.03
0.00 0.00 0.00 0.00 0.00 0.00 0.00 0.00 0.00 0.00 0.00 0.00 0.00 0.00 0.00 0.00 0.00 0.00 0.00 0.04 0.05 0.03 0.03 0.02 0.03 0.05 0.07 0.09 0.10 0.07 0.01 0.00 0.00 0.03 0.07 0.13 0.09 0.24 0.10 0.04 0.05 0.06 0.06
0.00 0.00 0.00 0.00 0.00 0.00 0.00 0.00 0.00 0.00 0.00 0.00 0.00 0.00 0.00 0.00 0.00 0.02 0.06 0.08 0.08 0.13 0.11 0.05 0.11 0.13 0.05 0.03 0.08 0.10 0.01 0.02 0.04 0.03 0.05 0.13 0.10 0.20 0.16 0.14 0.12 0.13 0.16
0.00 0.00 0.00 0.00 0.00 0.00 0.00 0.00 0.00 0.00 0.00 0.00 0.00 0.00 0.00 0.01 0.03 0.13 0.13 0.14 0.20 0.28 0.34 0.36 0.39 0.33 0.02 0.00 0.00 0.02 0.01 0.04 0.16 0.16 0.19 0.13 0.32 0.19 0.15 0.10 0.11 0.11 0.15
0.00 0.00 0.00 0.00 0.00 0.00 0.00 0.00 0.00 0.00 0.00 0.00 0.00 0.00 0.00 0.03 0.14 0.17 0.16 0.15 0.34 0.44 0.36 0.36 0.22 0.15 0.01 0.00 0.01 0.05 0.04 0.06 0.18 0.21 0.28 0.21 0.35 0.09 0.05 0.03 0.06 0.09 0.08
0.00 0.00 0.00 0.00 0.00 0.00 0.00 0.00 0.01 0.00 0.00 0.00 0.01 0.02 0.01 0.08 0.23 0.12 0.06 0.09 0.17 0.24 0.31 0.23 0.09 0.05 0.05 0.02 0.03 0.10 0.06 0.04 0.13 0.49 0.83 0.35 0.41 0.12 0.06 0.03 0.09 0.07 0.02
0.00 0.00 0.00 0.00 0.00 0.00 0.00 0.00 0.00 0.00 0.00 0.02 0.02 0.13 0.28 0.51 0.39 0.24 0.13 0.31 0.32 0.28 0.52 0.43 0.30 0.52 0.21 0.23 0.20 0.17 0.10 0.08 0.14 0.27 0.69 0.19 0.24 0.13 0.09 0.04 0.05 0.04 0.01
0.00 0.00 0.00 0.00 0.00 0.00 0.01 0.01 0.01 0.01 0.02 0.02 0.02 0.06 0.17 0.30 0.22 0.28 0.31 0.31 0.35 0.35 0.36 0.42 0.58 0.47 0.57 0.38 0.18 0.16 0.13 0.10 0.08 0.46 0.46 0.20 0.21 0.14 0.11 0.04 0.01 0.00 0.01
0.00 0.00 0.00 0.00 0.00 0.00 0.00 0.01 0.02 0.02 0.03 0.02 0.01 0.02 0.15 0.23 0.16 0.14 0.22 0.20 0.21 0.32 0.39 0.47 0.43 0.56 0.56 0.63 0.64 0.61 0.39 0.03 0.15 0.22 0.32 0.19 0.30 0.13 0.09 0.05 0.02 0.01 0.01
0.00 0.00 0.00 0.00 0.00 0.00 0.00 0.01 0.02 0.03 0.03 0.03 0.02 0.02 0.04 0.06 0.09 0.06 0.05 0.03 0.17 0.32 0.43 0.45 0.39 0.44 0.47 0.44 0.58 0.51 0.24 0.16 0.28 0.51 0.25 0.14 0.23 0.10 0.10 0.04 0.03 0.01 0.01
0.00 0.00 0.00 0.00 0.00 0.00 0.00 0.00 0.01 0.02 0.03 0.03 0.04 0.04 0.05 0.10 0.12 0.13 0.15 0.12 0.26 0.30 0.44 0.44 0.21 0.19 0.15 0.21 0.31 0.35 0.39 0.28 0.44 0.46 0.36 0.13 0.21 0.15 0.12 0.03 0.03 0.02 0.02
0.00 0.00 0.00 0.00 0.00 0.00 0.00 0.00 0.00 0.01 0.03 0.02 0.03 0.04 0.07 0.10 0.09 0.08 0.08 0.11 0.21 0.25 0.27 0.28 0.14 0.09 0.06 0.14 0.19 0.20 0.37 0.63 0.66 0.91 0.35 0.22 0.29 0.40 0.15 0.06 0.03 0.04 0.03
0.00 0.00 0.00 0.00 0.00 0.00 0.00 0.00 0.00 0.01 0.01 0.01 0.01 0.03 0.05 0.04 0.05 0.07 0.08 0.27 0.35 0.35 0.28 0.27 0.18 0.13 0.07 0.07 0.11 0.12 0.13 0.20 0.61 0.65 0.48 0.24 0.27 0.34 0.23 0.11 0.07 0.05 0.04
0.00 0.00 0.00 0.00 0.00 0.00 0.00 0.00 0.00 0.00 0.01 0.01 0.01 0.01 0.03 0.05 0.12 0.17 0.20 0.28 0.69 0.81 0.38 0.28 0.25 0.15 0.12 0.09 0.16 0.15 0.15 0.08 0.09 0.18 0.30 0.16 0.29 0.37 0.49 0.24 0.15 0.09 0.05
0.00 0.00 0.00 0.00 0.00 0.00 0.00 0.00 0.00 0.00 0.00 0.00 0.01 0.01 0.01 0.02 0.04 0.15 0.27 0.46 0.42 1.02 0.66 0.41 0.44 0.44 0.31 0.16 0.16 0.15 0.17 0.17 0.09 0.06 0.09 0.07 0.10 0.25 0.42 0.48 0.28 0.14 0.08
0.00 0.00 0.00 0.00 0.00 0.00 0.00 0.00 0.00 0.00 0.00 0.00 0.00 0.01 0.00 0.01 0.02 0.07 0.18 0.32 0.48 0.62 0.53 0.45 0.53 0.50 0.48 0.23 0.19 0.15 0.16 0.17 0.20 0.14 0.04 0.03 0.03 0.06 0.17 0.46 0.45 0.27 0.13
0.00 0.00 0.00 0.00 0.00 0.00 0.00 0.00 0.00 0.00 0.01 0.01 0.01 0.01 0.01 0.01 0.02 0.05 0.16 0.36 0.49 0.56 0.43 0.45 0.41 0.55 0.49 0.39 0.27 0.19 0.18 0.16 0.11 0.13 0.07 0.04 0.03 0.03 0.04 0.17 0.27 0.14 0.10
0.00 0.00 0.00 0.00 0.00 0.00 0.00 0.00 0.00 0.00 0.01 0.02 0.02 0.01 0.02 0.04 0.03 0.05 0.13 0.37 0.72 0.82 0.46 0.43 0.54 0.59 0.55 0.50 0.37 0.33 0.32 0.27 0.15 0.06 0.05 0.04 0.04 0.04 0.04 0.04 0.07 0.05 0.04
0.00 0.00 0.00 0.00 0.00 0.00 0.00 0.00 0.00 0.01 0.01 0.04 0.03 0.03 0.03 0.05 0.06 0.09 0.15 0.25 0.56 0.61 0.47 0.30 0.45 0.62 0.65 0.53 0.49 0.51 0.39 0.30 0.22 0.10 0.04 0.04 0.03 0.03 0.04 0.02 0.01 0.01 0.02
0.00 0.00 0.00 0.00 0.00 0.00 0.00 0.01 0.04 0.08 0.04 0.02 0.04 0.05 0.05 0.07 0.08 0.10 0.16 0.22 0.40 0.48 0.50 0.37 0.33 0.47 0.50 0.46 0.40 0.42 0.47 0.46 0.36 0.19 0.07 0.04 0.03 0.04 0.04 0.02 0.01 0.00 0.01
0.00 0.00 0.00 0.00 0.00 0.00 0.01 0.04 0.07 0.25 0.19 0.06 0.05 0.04 0.11 0.15 0.19 0.28 0.23 0.25 0.22 0.21 0.29 0.39 0.38 0.28 0.25 0.32 0.29 0.25 0.29 0.22 0.17 0.24 0.20 0.05 0.03 0.03 0.06 0.08 0.02 0.00 0.00
0.00 0.00 0.00 0.01 0.03 0.05 0.08 0.10 0.12 0.11 0.05 0.01 0.01 0.03 0.07 0.14 0.26 0.21 0.36 0.41 0.42 0.24 0.24 0.31 0.44 0.37 0.27 0.29 0.26 0.17 0.07 0.08 0.11 0.18 0.21 0.24 0.10 0.07 0.05 0.06 0.02 0.00 0.00
0.00 0.00 0.00 0.00 0.01 0.03 0.07 0.09 0.13 0.14 0.18 0.08 0.01 0.02 0.03 0.06 0.20 0.34 0.14 0.23 0.33 0.20 0.15 0.19 0.33 0.42 0.34 0.29 0.25 0.23 0.15 0.10 0.13 0.18 0.23 0.24 0.35 0.22 0.14 0.08 0.02 0.00 0.00
0.00 0.00 0.00 0.00 0.00 0.01 0.02 0.03 0.03 0.04 0.07 0.08 0.05 0.01 0.03 0.05 0.08 0.17 0.36 0.20 0.18 0.17 0.08 0.07 0.14 0.19 0.26 0.29 0.27 0.28 0.19 0.13 0.10 0.12 0.17 0.21 0.23 0.21 0.19 0.16 0.04 0.00 0.00